Regional Weather Roundup
Issued by NWS

Home | Current Version | Previous Version | Text Only | Print | Product List | Glossary On
Versions: 1 2 3 4 5 6 7 8 9 10 11 12 13 14 15 16 17 18 19 20 21 22 23 24 25 26 27 28 29 30 31 32 33 34 35 36 37 38 39 40 41 42 43 44 45 46 47 48 49 50
000
ASUS43 KDTX 271801
RWRMI
MICHIGAN HOURLY REGIONAL WEATHER ROUNDUP
NATIONAL WEATHER SERVICE DETROIT/PONTIAC MI
200 PM EDT TUE JUN 27 2017

NOTE: "FAIR" INDICATES FEW OR NO CLOUDS BELOW 12,000 FEET WITH NO
SIGNIFICANT WEATHER AND/OR OBSTRUCTION TO VISIBILITY.

MIZ047>049-052>055-059>063-066>070-074>076-081>083-271900-
SOUTHEAST LOWER MICHIGAN

CITY           SKY/WX    TMP DP  RH WIND       PRES   REMARKS
ADRIAN         PTSUNNY   70  44  39 NW12      30.10S
6HR MIN TEMP:  54; 6HR MAX TEMP:  71;

ALMA           PTSUNNY   69  47  44 W12G20    30.05F
ANN ARBOR      MOSUNNY   69  46  43 W9        30.07F
BAD AXE        PTSUNNY   67  47  47 W12G17    30.04S
6HR MIN TEMP:  55; 6HR MAX TEMP:  68;

CARO           PTSUNNY   69  50  50 W8        30.03S
DETROIT CITY   PTSUNNY   68  43  40 W6        30.06F
6HR MIN TEMP:  55; 6HR MAX TEMP:  70;

DETROIT        PTSUNNY   70  44  39 W8G23     30.07F
6HR MIN TEMP:  56; 6HR MAX TEMP:  71;

FLINT          PTSUNNY   70  46  42 W12G22    30.06S
6HR MIN TEMP:  54; 6HR MAX TEMP:  71;

GROSSE ILE     PTSUNNY   70  45  39 W5        30.07S
6HR MIN TEMP:  56; 6HR MAX TEMP:  71;

HILLSDALE      MOSUNNY   70  45  40 W6G16     30.09F
HOWELL         PTSUNNY   69  41  35 W13G20    30.07S
6HR MIN TEMP:  55; 6HR MAX TEMP:  70;


CITY           SKY/WX    TMP DP  RH WIND       PRES   REMARKS
JACKSON        MOSUNNY   69  45  41 NW9G17    30.08F
6HR MIN TEMP:  53; 6HR MAX TEMP:  71;

LAMBERTVILLE   MOSUNNY   70  42  35 W8        30.09S
6HR MIN TEMP:  55; 6HR MAX TEMP:  71;

LANSING        MOSUNNY   73  45  36 NW13      30.07F
6HR MIN TEMP:  56; 6HR MAX TEMP:  73;

LAPEER         PTSUNNY   68  43  40 NW10G17   30.05S
6HR MIN TEMP:  55; 6HR MAX TEMP:  69;

MASON          PTSUNNY   69  48  46 W9G20     30.07F
MONROE         PTSUNNY   70  44  39 W9G16     30.08S
6HR MIN TEMP:  56; 6HR MAX TEMP:  71;

MT. CLEMENS    MOSUNNY   69  47  45 W13       30.04S
6HR MIN TEMP:  56; 6HR MAX TEMP:  71;

PONTIAC        PTSUNNY   70  44  39 W15       30.05F
6HR MIN TEMP:  55; 6HR MAX TEMP:  71;

PORT HOPE        N/A     68  47  46 NW8       30.00S
6HR MIN TEMP:  56; 6HR MAX TEMP:  68;

PORT HURON     CLOUDY    68  45  42 W6        30.04F
TRI CITIES     PTSUNNY   70  50  49 NW8       30.04S
6HR MIN TEMP:  56; 6HR MAX TEMP:  70;

MIDLAND        PTSUNNY   66  50  56 CALM      30.03S
6HR MIN TEMP:  56; 6HR MAX TEMP:  71;

TROY           PTSUNNY   70  38  31 W13       30.08S
SAGINAW HB     PTSUNNY   72  41  33 W12G18    30.03F
$$
MIZ043>046-050>051-056>058-064>065-071>073-077>080-271900-
SOUTHWEST LOWER MICHIGAN

CITY           SKY/WX    TMP DP  RH WIND       PRES   REMARKS
BATTLE CREEK   PTSUNNY   70  44  39 W14G22    30.10S
6HR MIN TEMP:  54; 6HR MAX TEMP:  72;

BENTON HARBOR  SUNNY     70  45  40 W15       30.12F
6HR MIN TEMP:  59; 6HR MAX TEMP:  70;

BIG RAPIDS     PTSUNNY   68  43  40 NW10G21   30.04F
6HR MIN TEMP:  55; 6HR MAX TEMP:  69;

COLDWATER      PTSUNNY   67  42  39 W9        30.10F
6HR MIN TEMP:  55; 6HR MAX TEMP:  71;

FREMONT        FAIR      70  44  38 W13       30.06S
HOLLAND        SUNNY     68  51  54 W15       30.11S
6HR MIN TEMP:  59; 6HR MAX TEMP:  69;

GRAND RAPIDS   PTSUNNY   70  48  45 W14       30.07F
6HR MIN TEMP:  55; 6HR MAX TEMP:  71;

IONIA          PTSUNNY   70  47  43 W16G22    30.06S
6HR MIN TEMP:  55; 6HR MAX TEMP:  71;

KALAMAZOO      MOSUNNY   72  41  32 W9G18     30.10F
6HR MIN TEMP:  54; 6HR MAX TEMP:  73;

LUDINGTON      MOSUNNY   63  54  72 SW9       30.07S
6HR MIN TEMP:  58; 6HR MAX TEMP:  63;

MARSHALL       MOSUNNY   73  45  36 W12G20    30.08F
6HR MIN TEMP:  54; 6HR MAX TEMP:  74;

MOUNT PLEASANT MOSUNNY   70  46  42 NW8       30.03F
6HR MIN TEMP:  55; 6HR MAX TEMP:  71;

MUSKEGON       MOSUNNY   67  52  58 W10       30.09S
6HR MIN TEMP:  61; 6HR MAX TEMP:  68;

SOUTH HAVEN    SUNNY     68  52  57 W10G16    30.12S
$$
MIZ016>042-271900-
NORTHERN LOWER MICHIGAN

CITY           SKY/WX    TMP DP  RH WIND       PRES   REMARKS
ALPENA         PTSUNNY   69  48  47 W6        29.99S
6HR MIN TEMP:  54; 6HR MAX TEMP:  71;

BEAVER ISLAND  PTSUNNY   65  48  52 W6        30.02S
6HR MIN TEMP:  56; 6HR MAX TEMP:  66;

BELLAIRE       SUNNY     67  49  51 W9G17     30.02S
6HR MIN TEMP:  53; 6HR MAX TEMP:  67;

CADILLAC       PTSUNNY   66  47  49 W8        30.03F
CHARLEVOIX     MOSUNNY   64  52  65 W10       30.05S
FRANKFORT      SUNNY     64  53  67 SW7       30.05S
GAYLORD        CLOUDY    64  45  49 NW12      30.02S
6HR MIN TEMP:  51; 6HR MAX TEMP:  66;

GRAYLING       CLOUDY    65  49  54 W8        30.03S
6HR MIN TEMP:  50; 6HR MAX TEMP:  68;

HARBOR SPRINGS MOSUNNY   62  50  65 SW7       30.02S
HOUGHTON LAKE  LGT RAIN  61  47  59 NW10      30.04R
6HR MIN TEMP:  54; 6HR MAX TEMP:  69; 6HR PCP: TRACE;

MANISTEE       SUNNY     65  53  65 W10       30.05S
OSCODA         PTSUNNY   69  48  47 W13G21    29.99S
6HR MIN TEMP:  56; 6HR MAX TEMP:  72;

PELLSTON       CLOUDY    68  44  42 NW10      30.01S
6HR MIN TEMP:  55; 6HR MAX TEMP:  68;

ROGERS CITY    CLOUDY    63  50  61 NW7       30.00S
TRAVERSE CITY  PTSUNNY   71  47  42 W13       30.00F
6HR MIN TEMP:  56; 6HR MAX TEMP:  71;

$$
MIZ007>008-015-271900-
EASTERN UPPER MICHIGAN

CITY           SKY/WX    TMP DP  RH WIND       PRES   REMARKS
KINROSS        CLOUDY    65  45  48 NW14      29.98S
6HR MIN TEMP:  47; 6HR MAX TEMP:  65;

MACKINAC ISLAN CLOUDY    61  51  69 W8G17     30.00S
6HR MIN TEMP:  54; 6HR MAX TEMP:  61;

NEWBERRY       CLOUDY    66  48  52 W5        29.99S
6HR MIN TEMP:  50; 6HR MAX TEMP:  66;

S. S. MARIE    MOSUNNY   67  48  50 NW9       29.97S
6HR MIN TEMP:  52; 6HR MAX TEMP:  67;

MUNISING         N/A     63  53  70 NE3       29.99F
6HR MIN TEMP:  50; 6HR MAX TEMP:  64;

$$
MIZ004>006-011>014-085-271900-
CENTRAL UPPER MICHIGAN

CITY           SKY/WX    TMP DP  RH WIND       PRES   REMARKS
MANISTIQUE     MOSUNNY   62  53  71 S9        30.00S
6HR MIN TEMP:  51; 6HR MAX TEMP:  65;

ESCANABA       PTSUNNY   65  55  70 S12       30.00S
6HR MIN TEMP:  52; 6HR MAX TEMP:  66;

MENOMINEE      PTSUNNY   69  52  54 SW6       30.02
6HR MIN TEMP:  52; 6HR MAX TEMP:  70;

SAWYER-GWINN   SUNNY     68  48  49 N6        29.99
$$
MIZ001>003-009>011-084-271900-
WESTERN UPPER MICHIGAN

CITY           SKY/WX    TMP DP  RH WIND       PRES   REMARKS
IRON MOUNTAIN  MOSUNNY   71  45  39 N8        29.99F
6HR MIN TEMP:  52; 6HR MAX TEMP:  72;

HOUGHTON       SUNNY     70  48  45 W15G21    29.97F
6HR MIN TEMP:  51; 6HR MAX TEMP:  70;

COPPER HARBOR    N/A     61  53  75 N13       29.94F
6HR MIN TEMP:  57; 6HR MAX TEMP:  61;

IRONWOOD       PTSUNNY   70  48  45 SW12      29.99F
6HR MIN TEMP:  54; 6HR MAX TEMP:  70;

$$

ABBREVIATIONS USED IN REMARKS
   TC - TEMPERATURE IN CELSIUS
  WCI - WIND CHILL INDEX
   HX - HEAT INDEX
  VSB - VISIBILITY





USA.gov is the U.S. government's official web portal to all federal, state and local government web resources and services.